Location: Beaurevoir
(49.9971°N, 3.3085°E)
Time: 04:31:26
(UTC+00:00)

CZ-2D R/B - Pass Details

Date: 23 May 2024
Orbit: 790 x 843 km, 98.8° (Epoch: 21 June)

Event Time Altitude Azimuth Distance (km) Brightness Sun altitude
Rises 00:11:00 0° 30° (NNE) 3,412 6.6 -19.1°
Reaches altitude 10° 00:14:54 10° 58° (ENE) 2,466 5.1 -19.0°
Maximum altitude 00:17:19 13° 85° (E) 2,254 4.6 -19.0°
Drops below altitude 10° 00:19:43 10° 111° (ESE) 2,448 4.5 -18.9°
Enters shadow 00:21:27 - 126° (SE) 2,799 4.6 -18.9°
